Regional Weather Roundup
Issued by NWS

Home | Current Version | Previous Version | Graphics & Text | Print | Product List | Glossary On
Versions: 1 2 3 4 5 6 7 8 9 10 11 12 13 14 15 16 17 18 19 20 21 22 23 24 25 26 27 28 29 30 31 32 33 34 35 36 37 38 39 40 41 42 43 44 45 46 47 48 49 50
000
ASUS43 KMKX 051811
RWRWI

WISCONSIN REGIONAL WEATHER ROUNDUP
NATIONAL WEATHER SERVICE MILWAUKEE/SULLIVAN WI
100 PM CDT TUE MAY 05 2015

NOTE: "FAIR" INDICATES FEW OR NO CLOUDS BELOW 12,000 FEET WITH NO
SIGNIFICANT WEATHER AND/OR OBSTRUCTIONS TO VISIBILITY.

WIZ001-002-006>008-014>016-023>028-051900-
NORTHWEST WISCONSIN

CITY           SKY/WX    TMP DP  RH WIND       PRES   REMARKS
SUPERIOR ARPT  SUNNY     56  33  42 NE10      30.24F
6HR MIN TEMP:  32; 6HR MAX TEMP:  58;

ASHLAND        SUNNY     69  41  36 N9        30.24F
6HR MIN TEMP:  38; 6HR MAX TEMP:  73;

HAYWARD        SUNNY     70  24  17 S12       30.23F
6HR MIN TEMP:  42; 6HR MAX TEMP:  70;

SIREN          SUNNY     71  27  19 SE15G23   30.21F
6HR MIN TEMP:  36; 6HR MAX TEMP:  71;

CUMBERLAND     SUNNY     68  21  17 SE17G25   30.23F
RICE LAKE      SUNNY     69  22  16 SE16G25   30.24F
6HR MIN TEMP:  51; 6HR MAX TEMP:  70;

CHETEK         SUNNY     68  31  25 SE16G23   30.24F
6HR MIN TEMP:  49; 6HR MAX TEMP:  68;

LADYSMITH      SUNNY     68  25  19 SE15G21   30.27F
6HR MIN TEMP:  48; 6HR MAX TEMP:  68;

EAU CLAIRE     MOSUNNY   69  27  20 SE23G29   30.22F
6HR MIN TEMP:  49; 6HR MAX TEMP:  69;

MENOMONIE      MOSUNNY   68  34  27 SE20      30.22F
6HR MIN TEMP:  49; 6HR MAX TEMP:  69;

NEW RICHMOND   SUNNY     68  32  25 E16       30.20F
6HR MIN TEMP:  49; 6HR MAX TEMP:  68;

OSCEOLA        SUNNY     69  34  27 SE17      30.22F
6HR MIN TEMP:  50; 6HR MAX TEMP:  69;

$$

WIZ003>005-009-010-017-018-051900-
NORTH CENTRAL WISCONSIN

CITY           SKY/WX    TMP DP  RH WIND       PRES   REMARKS
MANITOWISH WTR SUNNY     66  33  29 S6        30.27F
6HR MIN TEMP:  37; 6HR MAX TEMP:  67;

ARBOR VITAE    SUNNY     68  31  24 E8        30.27F
6HR MIN TEMP:  43; 6HR MAX TEMP:  68;

WOODRUFF       SUNNY     68  31  24 E8        30.27F
6HR MIN TEMP:  43; 6HR MAX TEMP:  68;

RHINELANDER    SUNNY     67  29  24 SE9G18    30.29F
6HR MIN TEMP:  44; 6HR MAX TEMP:  67;

EAGLE RIVER    SUNNY     67  26  21 SE10      30.27F
6HR MIN TEMP:  38; 6HR MAX TEMP:  68;

LAND O LAKES   SUNNY     68  17  14 SW5       30.28F
6HR MIN TEMP:  37; 6HR MAX TEMP:  69;

PHILLIPS       SUNNY     67  28  23 SE13      30.26F
6HR MIN TEMP:  44; 6HR MAX TEMP:  67;

TOMAHAWK       SUNNY     66  26  21 SE3       30.28F
6HR MIN TEMP:  39; 6HR MAX TEMP:  67;

MEDFORD        SUNNY     65  24  21 E8G18     30.27F
6HR MIN TEMP:  44; 6HR MAX TEMP:  65;

MERRILL        SUNNY     67  24  19 E15       30.28F
$$

WIZ029-030-035-036-043>047-051900-
CENTRAL WISCONSIN

CITY           SKY/WX    TMP DP  RH WIND       PRES   REMARKS
WAUSAU         SUNNY     67  21  17 E17       30.27F
6HR MIN TEMP:  47; 6HR MAX TEMP:  68;

MOSINEE        SUNNY     64  21  19 E14G22    30.29F
MARSHFIELD     MOSUNNY   65  29  25 SE16      30.27F
6HR MIN TEMP:  50; 6HR MAX TEMP:  68;

STEVENS POINT  MOSUNNY   63  21  20 E16G24    30.29F
6HR MIN TEMP:  46; 6HR MAX TEMP:  65;

WAUPACA        PTSUNNY   66  33  29 SE10      30.30F
6HR MIN TEMP:  50; 6HR MAX TEMP:  66;

WAUTOMA        PTSUNNY   61  40  45 E10       30.30F
6HR MIN TEMP:  50; 6HR MAX TEMP:  61;

WISC RAPIDS    PTSUNNY   63  28  26 SE15G25   30.29
6HR MIN TEMP:  49; 6HR MAX TEMP:  65;

CAMP DOUGLAS   CLOUDY    59  45  58 E12       30.26F
$$

WIZ011>013-019>022-031-037>040-048>050-051900-
NORTHEAST WISCONSIN

CITY           SKY/WX    TMP DP  RH WIND       PRES   REMARKS
ANTIGO         SUNNY     64  30  28 SE14G22   30.30F
SHAWANO        SUNNY     69  22  17 E15G22    30.31F
6HR MIN TEMP:  49; 6HR MAX TEMP:  69;

OCONTO         MOSUNNY   63  29  28 E8        30.32F
6HR MIN TEMP:  44; 6HR MAX TEMP:  63;

STURGEON BAY   MOSUNNY   61  25  25 SE10G16   30.35F
6HR MIN TEMP:  46; 6HR MAX TEMP:  61;

GREEN BAY      MOSUNNY   66  25  21 SE14      30.32S
6HR MIN TEMP:  49; 6HR MAX TEMP:  66;

MANITOWOC      CLOUDY    56  33  42 SE9       30.33F
6HR MIN TEMP:  46; 6HR MAX TEMP:  57; 6HR PCP: TRACE;

APPLETON       PTSUNNY   59  34  38 SE10      30.31F
CLINTONVILLE   MOSUNNY   66  19  16 E14G20    30.30F
OSHKOSH        CLOUDY    60  42  51 E10       30.30F
6HR MIN TEMP:  51; 6HR MAX TEMP:  60;

$$

WIZ032>034-041-042-053>061-051900-
SOUTHWEST WISCONSIN

CITY           SKY/WX    TMP DP  RH WIND       PRES   REMARKS
LA CROSSE      CLOUDY    58  50  75 E10       30.24F
6HR MIN TEMP:  54; 6HR MAX TEMP:  58; 6HR PCP:  0.03;

SPARTA         CLOUDY    58  42  56 E12       30.26F
6HR MIN TEMP:  53; 6HR MAX TEMP:  58;

VIROQUA        CLOUDY    51  51 100 E14       30.24F
6HR MIN TEMP:  48; 6HR MAX TEMP:  51; 6HR PCP:  0.16;

BOSCOBEL       CLOUDY    55  51  86 NE6       30.24F
6HR MIN TEMP:  51; 6HR MAX TEMP:  55; 6HR PCP:  0.16;

PRAIRIE DU CHI CLOUDY    52  51  96 E9G16     30.22F FOG
6HR MIN TEMP:  51; 6HR MAX TEMP:  53; 6HR PCP:  0.21;

PLATTEVILLE    CLOUDY    53  52  95 E15       30.22F
6HR MIN TEMP:  51; 6HR MAX TEMP:  53; 6HR PCP:  0.11;

$$

WIZ056-057-062-063-064-067-068-051900-
SOUTH CENTRAL WISCONSIN

CITY           SKY/WX    TMP DP  RH WIND       PRES   REMARKS
REEDSBURG      RAIN      52  51  95 E6        30.27F
6HR MIN TEMP:  47; 6HR MAX TEMP:  52; 6HR PCP:  0.11;

BARABOO/DELLS  NOT AVBL
LONE ROCK      LGT RAIN  54  50  86 E13       30.25F
6HR MIN TEMP:  49; 6HR MAX TEMP:  54; 6HR PCP:  0.13;

MINERAL POINT  CLOUDY    54  52  94 E13G18    30.23S FOG
MADISON        LGT RAIN  53  50  89 E14       30.27S FOG
6HR MIN TEMP:  49; 6HR MAX TEMP:  53; 6HR PCP:  0.19;

MIDDLETON      CLOUDY    53  52  94 E9        30.27F
6HR MIN TEMP:  50; 6HR MAX TEMP:  53; 6HR PCP:  0.21;

WATERTOWN      CLOUDY    51  51 100 E9        30.29R
6HR MIN TEMP:  47; 6HR MAX TEMP:  52;

MONROE         CLOUDY    52  52 100 E8        30.24S
JANESVILLE     NOT AVBL
$$

WIZ051-052-058>065-066-070>072-051900-
SOUTHEAST WISCONSIN

CITY           SKY/WX    TMP DP  RH WIND       PRES   REMARKS
MILWAUKEE      LGT RAIN  45  42  89 NE14      30.30F FOG
6HR MIN TEMP:  44; 6HR MAX TEMP:  48; 6HR PCP:  0.28;

WAUKESHA       LGT RAIN  46  45  93 E12       30.31S
MILWAUKEE/TIMM LGT RAIN  46  43  87 E12       30.31F
RACINE         LGT RAIN  46  44  93 N13       30.30S FOG
6HR MIN TEMP:  45; 6HR MAX TEMP:  48; 6HR PCP:  0.30;

BURLINGTON     CLOUDY    48  47  95 NE10      30.27S
6HR MIN TEMP:  46; 6HR MAX TEMP:  48; 6HR PCP:  0.16;

KENOSHA        LGT RAIN  49  47  93 E13       30.28S
6HR MIN TEMP:  47; 6HR MAX TEMP:  50; 6HR PCP:  0.21;

FOND DU LAC    CLOUDY    58  45  62 SE12      30.30F
6HR MIN TEMP:  51; 6HR MAX TEMP:  58;

SHEBOYGAN      CLOUDY    55  42  61 SE8       30.32F
6HR MIN TEMP:  45; 6HR MAX TEMP:  55;

WEST BEND      CLOUDY    50  43  76 E10       30.31F
JUNEAU         DRIZZLE   53  49  85 E14       30.30F
6HR MIN TEMP:  47; 6HR MAX TEMP:  54; 6HR PCP:  0.03;

$$

LSZ147-162-051900-
LAKE SUPERIOR

STATION/POSITION TIME  TEMP    WIND        PRES    WAVE
                       AIR SEA DIR/SP/G            HT/PER
                 (UTC) (F)     (DEG/KT/KT) (MB)    (FT/S)
W MID LAKE BUOY  1750   44 36   60/  4/  4 1026.4F   0
DEVILS ISLAND    1800   50      60/ 12/ 13 1025.5F
PORT WING        1740   49      30/ 19/ 21 1024.0F
SAXON HARBOR     1700   49        CALM     1025.1F
$$

LMZ867-665-643>646-051900-
LAKE MICHIGAN

STATION/POSITION TIME  TEMP    WIND        PRES    WAVE
                       AIR SEA DIR/SP/G            HT/PER
                 (UTC) (F)     (DEG/KT/KT) (MB)    (FT/S)
CHAMBERS ISLAND  1700   48     350/  6/  8 1027.4F
NORTHPORT PIER   1700   44     150/  4/  5 1027.8S


USA.gov is the U.S. government's official web portal to all federal, state and local government web resources and services.